Year,Month,Day,Hour,Minute,Value (Times are PST for temperature in C)
2010,07,14,00,00,10.60
2010,07,14,00,01,10.60
2010,07,14,00,02,10.60
2010,07,14,00,03,10.60
2010,07,14,00,04,10.60
2010,07,14,00,05,10.60
2010,07,14,00,06,10.60
2010,07,14,00,07,10.60
2010,07,14,00,08,10.50
2010,07,14,00,09,10.50
2010,07,14,00,10,10.50
2010,07,14,00,11,10.40
2010,07,14,00,12,10.40
2010,07,14,00,13,10.40
2010,07,14,00,14,10.40
2010,07,14,00,15,10.40
2010,07,14,00,16,10.40
2010,07,14,00,17,10.40
2010,07,14,00,18,10.40
2010,07,14,00,19,10.30
2010,07,14,00,20,10.30
2010,07,14,00,21,10.30
2010,07,14,00,22,10.30
2010,07,14,00,23,10.30
2010,07,14,00,24,10.40
2010,07,14,00,25,10.40
2010,07,14,00,26,10.40
2010,07,14,00,27,10.40
2010,07,14,00,28,10.40
2010,07,14,00,29,10.40
2010,07,14,00,30,10.40
2010,07,14,00,31,10.40
2010,07,14,00,32,10.40
2010,07,14,00,33,10.40
2010,07,14,00,34,10.40
2010,07,14,00,35,10.40
2010,07,14,00,36,10.40
2010,07,14,00,37,10.40
2010,07,14,00,38,10.40
2010,07,14,00,39,10.40
2010,07,14,00,40,10.30
2010,07,14,00,41,10.30
2010,07,14,00,42,10.30
2010,07,14,00,43,10.30
2010,07,14,00,44,10.30
2010,07,14,00,45,10.30
2010,07,14,00,46,10.30
2010,07,14,00,47,10.30
2010,07,14,00,48,10.30
2010,07,14,00,49,10.30
2010,07,14,00,50,10.30
2010,07,14,00,51,10.30
2010,07,14,00,52,10.30
2010,07,14,00,53,10.30
2010,07,14,00,54,10.30
2010,07,14,00,55,10.30
2010,07,14,00,56,10.30
2010,07,14,00,57,10.30
2010,07,14,00,58,10.30
2010,07,14,00,59,10.30
2010,07,14,01,00,10.30
2010,07,14,01,01,10.30
2010,07,14,01,02,10.30
2010,07,14,01,03,10.30
2010,07,14,01,04,10.30
2010,07,14,01,05,10.30
2010,07,14,01,06,10.30
2010,07,14,01,07,10.20
2010,07,14,01,08,10.20
2010,07,14,01,09,10.20
2010,07,14,01,10,10.20
2010,07,14,01,11,10.10
2010,07,14,01,12,10.10
2010,07,14,01,13,10.10
2010,07,14,01,14,10.10
2010,07,14,01,15,10.00
2010,07,14,01,16,10.00
2010,07,14,01,17,10.00
2010,07,14,01,18,10.00
2010,07,14,01,19,9.90
2010,07,14,01,20,9.90
2010,07,14,01,21,9.90
2010,07,14,01,22,9.90
2010,07,14,01,23,9.90
2010,07,14,01,24,9.90
2010,07,14,01,25,9.90
2010,07,14,01,26,9.90
2010,07,14,01,27,9.90
2010,07,14,01,28,9.80
2010,07,14,01,29,9.80
2010,07,14,01,30,9.80
2010,07,14,01,31,9.80
2010,07,14,01,32,9.80
2010,07,14,01,33,9.80
2010,07,14,01,34,9.80
2010,07,14,01,35,9.80
2010,07,14,01,36,9.80
2010,07,14,01,37,9.80
2010,07,14,01,38,9.80
2010,07,14,01,39,9.70
2010,07,14,01,40,9.70
2010,07,14,01,41,9.70
2010,07,14,01,42,9.70
2010,07,14,01,43,9.70
2010,07,14,01,44,9.70
2010,07,14,01,45,9.70
2010,07,14,01,46,9.70
2010,07,14,01,47,9.70
2010,07,14,01,48,9.60
2010,07,14,01,49,9.60
2010,07,14,01,50,9.60
2010,07,14,01,51,9.60
2010,07,14,01,52,9.60
2010,07,14,01,53,9.50
2010,07,14,01,54,9.50
2010,07,14,01,55,9.50
2010,07,14,01,56,9.50
2010,07,14,01,57,9.50
2010,07,14,01,58,9.50
2010,07,14,01,59,9.50
2010,07,14,02,00,9.50
2010,07,14,02,01,9.60
2010,07,14,02,02,9.60
2010,07,14,02,03,9.60
2010,07,14,02,04,9.60
2010,07,14,02,05,9.60
2010,07,14,02,06,9.60
2010,07,14,02,07,9.60
2010,07,14,02,08,9.60
2010,07,14,02,09,9.60
2010,07,14,02,10,9.60
2010,07,14,02,11,9.60
2010,07,14,02,12,9.60
2010,07,14,02,13,9.60
2010,07,14,02,14,9.70
2010,07,14,02,15,9.70
2010,07,14,02,16,9.70
2010,07,14,02,17,9.70
2010,07,14,02,18,9.70
2010,07,14,02,19,9.60
2010,07,14,02,20,9.60
2010,07,14,02,21,9.60
2010,07,14,02,22,9.60
2010,07,14,02,23,9.60
2010,07,14,02,24,9.50
2010,07,14,02,25,9.50
2010,07,14,02,26,9.50
2010,07,14,02,27,9.50
2010,07,14,02,28,9.40
2010,07,14,02,29,9.40
2010,07,14,02,30,9.40
2010,07,14,02,31,9.40
2010,07,14,02,32,9.40
2010,07,14,02,33,9.40
2010,07,14,02,34,9.30
2010,07,14,02,35,9.30
2010,07,14,02,36,9.30
2010,07,14,02,37,9.30
2010,07,14,02,38,9.30
2010,07,14,02,39,9.30
2010,07,14,02,40,9.30
2010,07,14,02,41,9.30
2010,07,14,02,42,9.20
2010,07,14,02,43,9.20
2010,07,14,02,44,9.20
2010,07,14,02,45,9.20
2010,07,14,02,46,9.20
2010,07,14,02,47,9.20
2010,07,14,02,48,9.20
2010,07,14,02,49,9.20
2010,07,14,02,50,9.20
2010,07,14,02,51,9.20
2010,07,14,02,52,9.20
2010,07,14,02,53,9.30
2010,07,14,02,54,9.30
2010,07,14,02,55,9.30
2010,07,14,02,56,9.30
2010,07,14,02,57,9.30
2010,07,14,02,58,9.30
2010,07,14,02,59,9.30
2010,07,14,03,00,9.30
2010,07,14,03,01,9.30
2010,07,14,03,02,9.30
2010,07,14,03,03,9.30
2010,07,14,03,06,9.20
2010,07,14,03,07,9.20
2010,07,14,03,08,9.20
2010,07,14,03,09,9.20
2010,07,14,03,10,9.20
2010,07,14,03,11,9.20
2010,07,14,03,12,9.20
2010,07,14,03,13,9.20
2010,07,14,03,14,9.20
2010,07,14,03,15,9.20
2010,07,14,03,16,9.20
2010,07,14,03,17,9.20
2010,07,14,03,18,9.10
2010,07,14,03,19,9.10
2010,07,14,03,20,9.10
2010,07,14,03,21,9.10
2010,07,14,03,22,9.20
2010,07,14,03,23,9.20
2010,07,14,03,24,9.10
2010,07,14,03,25,9.10
2010,07,14,03,26,9.10
2010,07,14,03,27,9.10
2010,07,14,03,28,9.10
2010,07,14,03,29,9.10
2010,07,14,03,30,9.00
2010,07,14,03,31,9.00
2010,07,14,03,32,9.00
2010,07,14,03,33,9.00
2010,07,14,03,34,9.00
2010,07,14,03,35,9.00
2010,07,14,03,36,9.00
2010,07,14,03,37,9.00
2010,07,14,03,38,9.00
2010,07,14,03,39,9.00
2010,07,14,03,40,9.00
2010,07,14,03,41,9.00
2010,07,14,03,42,9.00
2010,07,14,03,43,9.00
2010,07,14,03,44,9.00
2010,07,14,03,45,9.00
2010,07,14,03,46,9.00
2010,07,14,03,47,9.00
2010,07,14,03,48,9.00
2010,07,14,03,49,9.00
2010,07,14,03,50,9.00
2010,07,14,03,51,8.90
2010,07,14,03,52,8.90
2010,07,14,03,53,8.90
2010,07,14,03,54,8.90
2010,07,14,03,55,8.90
2010,07,14,03,56,8.90
2010,07,14,03,57,8.90
2010,07,14,03,58,8.90
2010,07,14,03,59,8.90
2010,07,14,04,00,8.90
2010,07,14,04,01,8.90
2010,07,14,04,02,8.90
2010,07,14,04,03,8.80
2010,07,14,04,04,8.80
2010,07,14,04,05,8.80
2010,07,14,04,06,8.80
2010,07,14,04,07,8.80
2010,07,14,04,08,8.80
2010,07,14,04,09,8.80
2010,07,14,04,10,8.80
2010,07,14,04,11,8.80
2010,07,14,04,12,8.80
2010,07,14,04,13,8.80
2010,07,14,04,14,8.90
2010,07,14,04,15,8.90
2010,07,14,04,16,8.90
2010,07,14,04,17,8.90
2010,07,14,04,18,8.90
2010,07,14,04,19,8.90
2010,07,14,04,20,8.90
2010,07,14,04,21,9.00
2010,07,14,04,22,9.00
2010,07,14,04,23,9.00
2010,07,14,04,24,9.10
2010,07,14,04,25,9.10
2010,07,14,04,26,9.20
2010,07,14,04,27,9.20
2010,07,14,04,28,9.30
2010,07,14,04,29,9.40
2010,07,14,04,30,9.40
2010,07,14,04,31,9.50
2010,07,14,04,32,9.50
2010,07,14,04,33,9.60
2010,07,14,04,34,9.50
2010,07,14,04,35,9.50
2010,07,14,04,36,9.50
2010,07,14,04,37,9.50
2010,07,14,04,38,9.50
2010,07,14,04,39,9.60
2010,07,14,04,40,9.60
2010,07,14,04,41,9.70
2010,07,14,04,42,9.70
2010,07,14,04,43,9.80
2010,07,14,04,44,9.90
2010,07,14,04,45,10.00
2010,07,14,04,46,10.10
2010,07,14,04,47,10.20
2010,07,14,04,48,10.30
2010,07,14,04,49,10.30
2010,07,14,04,50,10.40
2010,07,14,04,51,10.40
2010,07,14,04,52,10.50
2010,07,14,04,53,10.60
2010,07,14,04,54,10.60
2010,07,14,04,55,10.60
2010,07,14,04,56,10.70
2010,07,14,04,57,10.70
2010,07,14,04,58,10.70
2010,07,14,04,59,10.70
2010,07,14,05,00,10.80
2010,07,14,05,01,10.80
2010,07,14,05,02,10.80
2010,07,14,05,03,10.80
2010,07,14,05,04,10.90
2010,07,14,05,05,10.90
2010,07,14,05,06,10.90
2010,07,14,05,07,10.90
2010,07,14,05,08,10.90
2010,07,14,05,09,10.90
2010,07,14,05,10,10.90
2010,07,14,05,11,10.90
2010,07,14,05,12,10.90
2010,07,14,05,13,10.90
2010,07,14,05,14,11.00
2010,07,14,05,15,11.00
2010,07,14,05,16,11.00
2010,07,14,05,17,11.00
2010,07,14,05,18,11.00
2010,07,14,05,19,11.00
2010,07,14,05,20,10.90
2010,07,14,05,21,10.90
2010,07,14,05,22,10.90
2010,07,14,05,23,10.90
2010,07,14,05,24,10.90
2010,07,14,05,25,11.00
2010,07,14,05,26,10.90
2010,07,14,05,27,10.90
2010,07,14,05,28,10.90
2010,07,14,05,29,10.90
2010,07,14,05,30,10.90
2010,07,14,05,31,10.90
2010,07,14,05,32,10.90
2010,07,14,05,33,10.90
2010,07,14,05,34,10.90
2010,07,14,05,35,10.90
2010,07,14,05,36,10.90
2010,07,14,05,37,10.90
2010,07,14,05,38,10.90
2010,07,14,05,39,10.90
2010,07,14,05,40,10.90
2010,07,14,05,41,10.90
2010,07,14,05,42,10.90
2010,07,14,05,43,10.90
2010,07,14,05,44,10.90
2010,07,14,05,45,10.90
2010,07,14,05,46,10.90
2010,07,14,05,47,10.90
2010,07,14,05,48,11.00
2010,07,14,05,49,11.00
2010,07,14,05,50,11.00
2010,07,14,05,51,11.00
2010,07,14,05,52,11.00
2010,07,14,05,53,11.00
2010,07,14,05,54,11.00
2010,07,14,05,55,11.00
2010,07,14,05,56,11.00
2010,07,14,05,57,11.00
2010,07,14,05,58,11.00
2010,07,14,05,59,11.10
2010,07,14,06,00,11.10
2010,07,14,06,01,11.10
2010,07,14,06,02,11.10
2010,07,14,06,03,11.10
2010,07,14,06,04,11.10
2010,07,14,06,05,11.10
2010,07,14,06,06,11.10
2010,07,14,06,07,11.10
2010,07,14,06,08,11.10
2010,07,14,06,09,11.10
2010,07,14,06,10,11.10
2010,07,14,06,11,11.10
2010,07,14,06,12,11.10
2010,07,14,06,13,11.10
2010,07,14,06,14,11.00
2010,07,14,06,15,11.00
2010,07,14,06,16,11.00
2010,07,14,06,17,11.00
2010,07,14,06,18,10.90
2010,07,14,06,19,10.90
2010,07,14,06,20,10.90
2010,07,14,06,21,10.80
2010,07,14,06,22,10.80
2010,07,14,06,23,10.80
2010,07,14,06,24,10.80
2010,07,14,06,25,10.80
2010,07,14,06,26,10.70
2010,07,14,06,27,10.70
2010,07,14,06,28,10.70
2010,07,14,06,29,10.70
2010,07,14,06,30,10.70
2010,07,14,06,31,10.70
2010,07,14,06,32,10.60
2010,07,14,06,33,10.60
2010,07,14,06,34,10.60
2010,07,14,06,35,10.60
2010,07,14,06,36,10.60
2010,07,14,06,37,10.60
2010,07,14,06,38,10.60
2010,07,14,06,39,10.60
2010,07,14,06,40,10.60
2010,07,14,06,41,10.60
2010,07,14,06,42,10.60
2010,07,14,06,43,10.50
2010,07,14,06,44,10.50
2010,07,14,06,45,10.50
2010,07,14,06,46,10.50
2010,07,14,06,47,10.50
2010,07,14,06,48,10.50
2010,07,14,06,49,10.50
2010,07,14,06,50,10.50
2010,07,14,06,51,10.50
2010,07,14,06,52,10.50
2010,07,14,06,53,10.50
2010,07,14,06,54,10.40
2010,07,14,06,55,10.40
2010,07,14,06,56,10.40
2010,07,14,06,57,10.40
2010,07,14,06,58,10.40
2010,07,14,06,59,10.40
2010,07,14,07,00,10.40
2010,07,14,07,01,10.40
2010,07,14,07,02,10.40
2010,07,14,07,03,10.40
2010,07,14,07,04,10.40
2010,07,14,07,05,10.40
2010,07,14,07,06,10.40
2010,07,14,07,07,10.40
2010,07,14,07,08,10.40
2010,07,14,07,09,10.40
2010,07,14,07,10,10.40
2010,07,14,07,11,10.40
2010,07,14,07,12,10.40
2010,07,14,07,13,10.40
2010,07,14,07,14,10.40
2010,07,14,07,15,10.40
2010,07,14,07,16,10.40
2010,07,14,07,17,10.40
2010,07,14,07,18,10.40
2010,07,14,07,19,10.40
2010,07,14,07,20,10.40
2010,07,14,07,21,10.40
2010,07,14,07,22,10.40
2010,07,14,07,23,10.40
2010,07,14,07,24,10.50
2010,07,14,07,25,10.50
2010,07,14,07,26,10.50
2010,07,14,07,27,10.50
2010,07,14,07,28,10.50
2010,07,14,07,29,10.50
2010,07,14,07,30,10.50
2010,07,14,07,31,10.50
2010,07,14,07,32,10.50
2010,07,14,07,33,10.50
2010,07,14,07,34,10.50
2010,07,14,07,35,10.50
2010,07,14,07,36,10.40
2010,07,14,07,37,10.40
2010,07,14,07,38,10.40
2010,07,14,07,39,10.40
2010,07,14,07,40,10.40
2010,07,14,07,41,10.40
2010,07,14,07,42,10.40
2010,07,14,07,43,10.40
2010,07,14,07,44,10.40
2010,07,14,07,45,10.40
2010,07,14,07,46,10.40
2010,07,14,07,47,10.40
2010,07,14,07,48,10.40
2010,07,14,07,49,10.40
2010,07,14,07,50,10.40
2010,07,14,07,51,10.40
2010,07,14,07,52,10.40
2010,07,14,07,53,10.40
2010,07,14,07,54,10.40
2010,07,14,07,55,10.40
2010,07,14,07,56,10.30
2010,07,14,07,57,10.30
2010,07,14,07,58,10.30
2010,07,14,07,59,10.30
2010,07,14,08,00,10.30
2010,07,14,08,01,10.30
2010,07,14,08,02,10.30
2010,07,14,08,03,10.30
2010,07,14,08,04,10.40
2010,07,14,08,05,10.40
2010,07,14,08,06,10.40
2010,07,14,08,07,10.40
2010,07,14,08,08,10.30
2010,07,14,08,09,10.30
2010,07,14,08,10,10.30
2010,07,14,08,11,10.30
2010,07,14,08,12,10.30
2010,07,14,08,13,10.30
2010,07,14,08,14,10.30
2010,07,14,08,15,10.30
2010,07,14,08,16,10.30
2010,07,14,08,17,10.30
2010,07,14,08,18,10.30
2010,07,14,08,19,10.30
2010,07,14,08,20,10.30
2010,07,14,08,21,10.30
2010,07,14,08,22,10.40
2010,07,14,08,23,10.30
2010,07,14,08,24,10.30
2010,07,14,08,25,10.30
2010,07,14,08,26,10.30
2010,07,14,08,27,10.30
2010,07,14,08,28,10.30
2010,07,14,08,29,10.30
2010,07,14,08,30,10.20
2010,07,14,08,31,10.20
2010,07,14,08,32,10.20
2010,07,14,08,33,10.20
2010,07,14,08,34,10.20
2010,07,14,08,35,10.30
2010,07,14,08,36,10.30
2010,07,14,08,37,10.30
2010,07,14,08,38,10.30
2010,07,14,08,39,10.20
2010,07,14,08,40,10.20
2010,07,14,08,41,10.20
2010,07,14,08,42,10.20
2010,07,14,08,43,10.20
2010,07,14,08,44,10.10
2010,07,14,08,45,10.10
2010,07,14,08,46,10.20
2010,07,14,08,47,10.20
2010,07,14,08,48,10.20
2010,07,14,08,49,10.20
2010,07,14,08,50,10.20
2010,07,14,08,51,10.20
2010,07,14,08,52,10.20
2010,07,14,08,53,10.20
2010,07,14,08,54,10.20
2010,07,14,08,55,10.20
2010,07,14,08,56,10.20
2010,07,14,08,57,10.20
2010,07,14,08,58,10.20
2010,07,14,08,59,10.20
2010,07,14,09,00,10.20
2010,07,14,09,01,10.20
2010,07,14,09,02,10.20
2010,07,14,09,03,10.20
2010,07,14,09,04,10.20
2010,07,14,09,05,10.20
2010,07,14,09,06,10.30
2010,07,14,09,07,10.30
2010,07,14,09,08,10.30
2010,07,14,09,09,10.30
2010,07,14,09,10,10.30
2010,07,14,09,11,10.30
2010,07,14,09,12,10.30
2010,07,14,09,13,10.30
2010,07,14,09,14,10.30
2010,07,14,09,15,10.30
2010,07,14,09,16,10.30
2010,07,14,09,17,10.30
2010,07,14,09,18,10.30
2010,07,14,09,19,10.40
2010,07,14,09,20,10.40
2010,07,14,09,21,10.40
2010,07,14,09,22,10.40
2010,07,14,09,23,10.40
2010,07,14,09,24,10.40
2010,07,14,09,25,10.30
2010,07,14,09,26,10.30
2010,07,14,09,27,10.30
2010,07,14,09,28,10.40
2010,07,14,09,29,10.40
2010,07,14,09,30,10.50
2010,07,14,09,31,10.50
2010,07,14,09,32,10.60
2010,07,14,09,33,10.60
2010,07,14,09,34,10.70
2010,07,14,09,35,10.70
2010,07,14,09,36,10.70
2010,07,14,09,37,10.70
2010,07,14,09,38,10.70
2010,07,14,09,39,10.70
2010,07,14,09,40,10.70
2010,07,14,09,41,10.70
2010,07,14,09,42,10.70
2010,07,14,09,43,10.80
2010,07,14,09,44,10.80
2010,07,14,09,45,10.80
2010,07,14,09,46,10.90
2010,07,14,09,47,10.90
2010,07,14,09,48,10.90
2010,07,14,09,49,10.90
2010,07,14,09,50,10.90
2010,07,14,09,51,10.90
2010,07,14,09,52,11.00
2010,07,14,09,53,11.00
2010,07,14,09,54,11.10
2010,07,14,09,55,11.10
2010,07,14,09,56,11.20
2010,07,14,09,57,11.20
2010,07,14,09,58,11.30
2010,07,14,09,59,11.30
2010,07,14,10,00,11.20
2010,07,14,10,01,11.20
2010,07,14,10,02,11.20
2010,07,14,10,03,11.20
2010,07,14,10,04,11.30
2010,07,14,10,05,11.30
2010,07,14,10,06,11.30
2010,07,14,10,07,11.30
2010,07,14,10,08,11.30
2010,07,14,10,09,11.30
2010,07,14,10,10,11.30
2010,07,14,10,11,11.30
2010,07,14,10,12,11.20
2010,07,14,10,13,11.10
2010,07,14,10,14,11.10
2010,07,14,10,15,11.10
2010,07,14,10,16,11.10
2010,07,14,10,17,11.20
2010,07,14,10,18,11.20
2010,07,14,10,19,11.30
2010,07,14,10,20,11.30
2010,07,14,10,21,11.30
2010,07,14,10,22,11.20
2010,07,14,10,23,11.20
2010,07,14,10,24,11.20
2010,07,14,10,25,11.20
2010,07,14,10,26,11.30
2010,07,14,10,27,11.40
2010,07,14,10,28,11.50
2010,07,14,10,29,11.50
2010,07,14,10,30,11.60
2010,07,14,10,31,11.70
2010,07,14,10,32,11.70
2010,07,14,10,33,11.70
2010,07,14,10,34,11.80
2010,07,14,10,35,11.80
2010,07,14,10,36,11.80
2010,07,14,10,37,11.90
2010,07,14,10,38,12.00
2010,07,14,10,39,12.00
2010,07,14,10,40,12.00
2010,07,14,10,41,12.10
2010,07,14,10,42,12.10
2010,07,14,10,43,12.10
2010,07,14,10,44,12.00
2010,07,14,10,45,12.10
2010,07,14,10,46,12.10
2010,07,14,10,47,12.10
2010,07,14,10,48,12.10
2010,07,14,10,49,12.10
2010,07,14,10,50,12.10
2010,07,14,10,51,12.10
2010,07,14,10,52,12.10
2010,07,14,10,53,12.20
2010,07,14,10,54,12.30
2010,07,14,10,55,12.30
2010,07,14,10,56,12.40
2010,07,14,10,57,12.40
2010,07,14,10,58,12.50
2010,07,14,10,59,12.60
2010,07,14,11,00,12.70
2010,07,14,11,01,12.80
2010,07,14,11,02,12.70
2010,07,14,11,03,12.70
2010,07,14,11,04,12.70
2010,07,14,11,05,12.70
2010,07,14,11,06,12.70
2010,07,14,11,07,12.80
2010,07,14,11,08,12.80
2010,07,14,11,09,12.80
2010,07,14,11,10,12.80
2010,07,14,11,11,12.80
2010,07,14,11,12,12.90
2010,07,14,11,13,12.80
2010,07,14,11,14,12.90
2010,07,14,11,15,12.90
2010,07,14,11,16,13.00
2010,07,14,11,17,13.10
2010,07,14,11,18,13.10
2010,07,14,11,19,13.10
2010,07,14,11,20,13.00
2010,07,14,11,21,13.00
2010,07,14,11,22,12.90
2010,07,14,11,23,12.90
2010,07,14,11,24,12.80
2010,07,14,11,25,12.90
2010,07,14,11,26,13.00
2010,07,14,11,27,13.20
2010,07,14,11,28,13.30
2010,07,14,11,29,13.40
2010,07,14,11,30,13.40
2010,07,14,11,31,13.50
2010,07,14,11,32,13.50
2010,07,14,11,33,13.60
2010,07,14,11,34,13.60
2010,07,14,11,35,13.60
2010,07,14,11,36,13.50
2010,07,14,11,37,13.40
2010,07,14,11,38,13.40
2010,07,14,11,39,13.40
2010,07,14,11,40,13.30
2010,07,14,11,41,13.30
2010,07,14,11,42,13.40
2010,07,14,11,43,13.40
2010,07,14,11,44,13.50
2010,07,14,11,45,13.50
2010,07,14,11,46,13.50
2010,07,14,11,47,13.50
2010,07,14,11,48,13.50
2010,07,14,11,49,13.50
2010,07,14,11,50,13.60
2010,07,14,11,51,13.60
2010,07,14,11,52,13.70
2010,07,14,11,53,13.80
2010,07,14,11,54,13.90
2010,07,14,11,55,14.10
2010,07,14,11,56,14.10
2010,07,14,11,57,14.10
2010,07,14,11,58,14.10
2010,07,14,11,59,14.10
2010,07,14,12,00,14.10
2010,07,14,12,01,14.20
2010,07,14,12,02,14.10
2010,07,14,12,03,14.00
2010,07,14,12,04,14.00
2010,07,14,12,05,14.00
2010,07,14,12,13,14.30
2010,07,14,12,14,14.20
2010,07,14,12,15,14.00
2010,07,14,12,16,13.80
2010,07,14,12,17,13.70
2010,07,14,12,18,13.60
2010,07,14,12,19,13.60
2010,07,14,12,20,13.50
2010,07,14,12,21,13.40
2010,07,14,12,22,13.30
2010,07,14,12,23,13.30
2010,07,14,12,24,13.30
2010,07,14,12,25,13.30
2010,07,14,12,26,13.20
2010,07,14,12,27,13.20
2010,07,14,12,28,13.20
2010,07,14,12,29,13.10
2010,07,14,12,30,13.10
2010,07,14,12,31,13.10
2010,07,14,12,32,13.20
2010,07,14,12,33,13.20
2010,07,14,12,34,13.30
2010,07,14,12,35,13.30
2010,07,14,12,36,13.40
2010,07,14,12,37,13.40
2010,07,14,12,38,13.40
2010,07,14,12,39,13.40
2010,07,14,12,40,13.50
2010,07,14,12,41,13.50
2010,07,14,12,42,13.50
2010,07,14,12,43,13.50
2010,07,14,12,44,13.50
2010,07,14,12,45,13.50
2010,07,14,12,46,13.60
2010,07,14,12,47,13.60
2010,07,14,12,48,13.60
2010,07,14,12,49,13.60
2010,07,14,12,50,13.60
2010,07,14,12,51,13.50
2010,07,14,12,52,13.50
2010,07,14,12,53,13.50
2010,07,14,12,54,13.40
2010,07,14,12,55,13.50
2010,07,14,12,56,13.60
2010,07,14,12,57,13.60
2010,07,14,12,58,13.70
2010,07,14,12,59,13.70
2010,07,14,13,00,13.80
2010,07,14,13,01,13.90
2010,07,14,13,02,14.00
2010,07,14,13,03,14.10
2010,07,14,13,04,14.10
2010,07,14,13,05,14.20
2010,07,14,13,06,14.20
2010,07,14,13,07,14.30
2010,07,14,13,08,14.40
2010,07,14,13,09,14.40
2010,07,14,13,10,14.40
2010,07,14,13,11,14.40
2010,07,14,13,12,14.50
2010,07,14,13,13,14.40
2010,07,14,13,14,14.40
2010,07,14,13,15,14.30
2010,07,14,13,16,14.20
2010,07,14,13,17,14.20
2010,07,14,13,18,14.10
2010,07,14,13,19,14.10
2010,07,14,13,20,14.10
2010,07,14,13,21,14.00
2010,07,14,13,22,13.90
2010,07,14,13,23,13.70
2010,07,14,13,24,13.60
2010,07,14,13,25,13.40
2010,07,14,13,26,13.30
2010,07,14,13,27,13.30
2010,07,14,13,28,13.30
2010,07,14,13,29,13.20
2010,07,14,13,30,13.20
2010,07,14,13,31,13.10
2010,07,14,13,32,13.00
2010,07,14,13,33,12.90
2010,07,14,13,34,12.80
2010,07,14,13,35,12.70
2010,07,14,13,36,12.70
2010,07,14,13,37,12.80
2010,07,14,13,38,12.80
2010,07,14,13,39,12.70
2010,07,14,13,40,12.70
2010,07,14,13,41,12.70
2010,07,14,13,42,12.70
2010,07,14,13,43,12.70
2010,07,14,13,44,12.50
2010,07,14,13,45,12.40
2010,07,14,13,46,12.20
2010,07,14,13,47,12.10
2010,07,14,13,48,12.10
2010,07,14,13,49,12.10
2010,07,14,13,50,12.20
2010,07,14,13,51,12.20
2010,07,14,13,52,12.20
2010,07,14,13,53,12.20
2010,07,14,13,54,12.30
2010,07,14,13,55,12.30
2010,07,14,13,56,12.30
2010,07,14,13,57,12.30
2010,07,14,13,58,12.30
2010,07,14,13,59,12.20
2010,07,14,14,00,12.30
2010,07,14,14,01,12.20
2010,07,14,14,02,12.20
2010,07,14,14,03,12.20
2010,07,14,14,04,12.20
2010,07,14,14,05,12.20
2010,07,14,14,06,12.30
2010,07,14,14,07,12.30
2010,07,14,14,08,12.30
2010,07,14,14,09,12.30
2010,07,14,14,10,12.40
2010,07,14,14,11,12.40
2010,07,14,14,12,12.50
2010,07,14,14,13,12.60
2010,07,14,14,14,12.70
2010,07,14,14,15,12.80
2010,07,14,14,16,12.90
2010,07,14,14,17,13.00
2010,07,14,14,18,13.00
2010,07,14,14,19,13.10
2010,07,14,14,20,13.20
2010,07,14,14,21,13.20
2010,07,14,14,22,13.30
2010,07,14,14,23,13.40
2010,07,14,14,24,13.40
2010,07,14,14,25,13.50
2010,07,14,14,26,13.50
2010,07,14,14,27,13.50
2010,07,14,14,28,13.60
2010,07,14,14,29,13.60
2010,07,14,14,30,13.50
2010,07,14,14,31,13.50
2010,07,14,14,32,13.60
2010,07,14,14,33,13.60
2010,07,14,14,34,13.70
2010,07,14,14,35,13.80
2010,07,14,14,36,13.90
2010,07,14,14,37,13.90
2010,07,14,14,38,14.00
2010,07,14,14,39,14.10
2010,07,14,14,40,14.20
2010,07,14,14,41,14.20
2010,07,14,14,42,14.20
2010,07,14,14,43,14.30
2010,07,14,14,44,14.20
2010,07,14,14,45,14.20
2010,07,14,14,46,14.10
2010,07,14,14,47,14.10
2010,07,14,14,48,14.00
2010,07,14,14,49,14.00
2010,07,14,14,50,14.00
2010,07,14,14,51,14.00
2010,07,14,14,52,14.00
2010,07,14,14,53,13.90
2010,07,14,14,54,13.90
2010,07,14,14,55,13.90
2010,07,14,14,56,13.90
2010,07,14,14,57,14.00
2010,07,14,14,58,14.10
2010,07,14,14,59,14.10
2010,07,14,15,00,14.10
2010,07,14,15,01,14.10
2010,07,14,15,02,14.20
2010,07,14,15,03,14.30
2010,07,14,15,04,14.40
2010,07,14,15,05,14.50
2010,07,14,15,06,14.60
2010,07,14,15,07,14.70
2010,07,14,15,08,14.80
2010,07,14,15,09,14.80
2010,07,14,15,10,14.70
2010,07,14,15,11,14.70
2010,07,14,15,12,14.70
2010,07,14,15,13,14.70
2010,07,14,15,14,14.70
2010,07,14,15,15,14.80
2010,07,14,15,16,14.80
2010,07,14,15,17,14.80
2010,07,14,15,18,14.80
2010,07,14,15,19,14.80
2010,07,14,15,20,14.80
2010,07,14,15,21,14.90
2010,07,14,15,22,15.00
2010,07,14,15,23,15.10
2010,07,14,15,24,15.20
2010,07,14,15,25,15.30
2010,07,14,15,26,15.30
2010,07,14,15,27,15.30
2010,07,14,15,28,15.30
2010,07,14,15,29,15.20
2010,07,14,15,30,15.10
2010,07,14,15,31,15.00
2010,07,14,15,32,14.80
2010,07,14,15,33,14.80
2010,07,14,15,34,14.80
2010,07,14,15,35,14.70
2010,07,14,15,36,14.70
2010,07,14,15,37,14.80
2010,07,14,15,38,14.80
2010,07,14,15,39,14.90
2010,07,14,15,40,15.00
2010,07,14,15,41,15.10
2010,07,14,15,42,15.10
2010,07,14,15,43,15.10
2010,07,14,15,44,15.00
2010,07,14,15,45,14.90
2010,07,14,15,46,14.80
2010,07,14,15,47,14.80
2010,07,14,15,48,14.90
2010,07,14,15,49,15.00
2010,07,14,15,50,15.10
2010,07,14,15,51,15.30
2010,07,14,15,52,15.50
2010,07,14,15,53,15.70
2010,07,14,15,54,15.70
2010,07,14,15,55,15.80
2010,07,14,15,56,15.80
2010,07,14,15,57,15.90
2010,07,14,15,58,16.10
2010,07,14,15,59,16.10
2010,07,14,16,00,16.00
2010,07,14,16,01,16.00
2010,07,14,16,02,15.80
2010,07,14,16,03,15.70
2010,07,14,16,04,15.50
2010,07,14,16,05,15.50
2010,07,14,16,06,15.50
2010,07,14,16,07,15.40
2010,07,14,16,08,15.20
2010,07,14,16,09,15.10
2010,07,14,16,10,15.00
2010,07,14,16,11,15.00
2010,07,14,16,12,15.00
2010,07,14,16,13,15.00
2010,07,14,16,14,15.10
2010,07,14,16,15,15.10
2010,07,14,16,16,15.10
2010,07,14,16,17,15.00
2010,07,14,16,18,15.00
2010,07,14,16,19,15.10
2010,07,14,16,20,15.20
2010,07,14,16,21,15.20
2010,07,14,16,22,15.20
2010,07,14,16,23,15.20
2010,07,14,16,24,15.20
2010,07,14,16,25,15.10
2010,07,14,16,26,15.10
2010,07,14,16,27,15.10
2010,07,14,16,28,15.00
2010,07,14,16,29,14.90
2010,07,14,16,30,14.80
2010,07,14,16,31,14.80
2010,07,14,16,32,14.90
2010,07,14,16,33,14.90
2010,07,14,16,34,14.90
2010,07,14,16,35,14.80
2010,07,14,16,36,14.70
2010,07,14,16,37,14.70
2010,07,14,16,38,14.80
2010,07,14,16,39,14.80
2010,07,14,16,40,14.90
2010,07,14,16,41,15.00
2010,07,14,16,42,15.10
2010,07,14,16,43,15.20
2010,07,14,16,44,15.40
2010,07,14,16,45,15.40
2010,07,14,16,46,15.40
2010,07,14,16,47,15.40
2010,07,14,16,48,15.50
2010,07,14,16,49,15.60
2010,07,14,16,50,15.70
2010,07,14,16,51,15.80
2010,07,14,16,52,15.80
2010,07,14,16,53,15.80
2010,07,14,16,54,15.80
2010,07,14,16,55,15.70
2010,07,14,16,56,15.70
2010,07,14,16,57,15.60
2010,07,14,16,58,15.50
2010,07,14,16,59,15.40
2010,07,14,17,00,15.30
2010,07,14,17,01,15.30
2010,07,14,17,02,15.30
2010,07,14,17,03,15.30
2010,07,14,17,04,15.30
2010,07,14,17,05,15.30
2010,07,14,17,06,15.10
2010,07,14,17,07,15.00
2010,07,14,17,08,14.90
2010,07,14,17,09,14.70
2010,07,14,17,10,14.60
2010,07,14,17,11,14.50
2010,07,14,17,12,14.30
2010,07,14,17,13,14.30
2010,07,14,17,14,14.20
2010,07,14,17,15,14.20
2010,07,14,17,16,14.20
2010,07,14,17,17,14.20
2010,07,14,17,18,14.20
2010,07,14,17,19,14.20
2010,07,14,17,20,14.20
2010,07,14,17,21,14.10
2010,07,14,17,22,14.20
2010,07,14,17,23,14.30
2010,07,14,17,24,14.40
2010,07,14,17,25,14.40
2010,07,14,17,26,14.50
2010,07,14,17,27,14.60
2010,07,14,17,28,14.60
2010,07,14,17,29,14.60
2010,07,14,17,30,14.70
2010,07,14,17,31,14.80
2010,07,14,17,32,14.80
2010,07,14,17,33,14.80
2010,07,14,17,34,14.80
2010,07,14,17,35,14.80
2010,07,14,17,36,14.80
2010,07,14,17,37,14.80